{"data":{"norad_id":65242,"intl_designator":"2025-179H","name":"STARLINK-34963","alt_names":[],"object_type":"PAYLOAD","status":"ACTIVE","operator":null,"country":"US","launch_date":"2025-08-18","launch_site_code":"AFWTR","launch_vehicle":null,"mission":null,"orbit_class":"UNKNOWN","rcs_meters":null,"size_class":null,"mass_kg":null,"dimensions":null,"purposes":["comms"],"wikipedia_slug":null,"has_3d_model":false,"image_url":null,"decayed_at":null,"tle_current":{"epoch":"2026-05-25T03:09:13.438656Z","epoch_age_seconds":63802,"freshness":"FRESH","line1":"1 65242U 25179H   26145.13140554  .00000423  00000+0  33365-4 0  9996","line2":"2 65242  97.4492 187.9940 0001731 134.3577 225.7792 15.05646179 43472","mean_motion":15.05646179,"eccentricity":0.0001731,"inclination_deg":97.4492,"raan_deg":187.994,"arg_perigee_deg":134.3577,"mean_anomaly_deg":225.7792,"bstar":3.3365e-5,"rev_number":4347,"period_min":95.639999628359,"perigee_km":548.32369667828,"apogee_km":550.72205252687,"semimajor_km":6927.6598746026,"source":"CELESTRAK","updated_at":"2026-05-25T13:38:20.725320Z"}}}